LEMUR-2-DUNLOP (43053 NORAD) Tracking and Keplerian Element Data

This shows tracking and keplerian element data for the satellite.

Feedback or suggestion? Click here.




ElementValue
Catalog43053
NameLEMUR-2-DUNLOP
Epoch Orbit1068
Epoch Day45.47202093
Epoch Year2018
RAAN278.8976
Inclination51.6392
Eccentricity8.68E-05
Argument of Perigee8.5515
Mean Anonmoly351.5483
Mean Motion15.38243281
Decay Rate3.828E-05
L11 43053U 17071S 18045.47202093 .00003828 00000-0 11024-3 0 9998
L22 43053 51.6392 278.8976 0000868 8.5515 351.5483 15.38243281 10687

Live tracking and technical data element details for LEMUR-2-DUNLOP (NORAD 43053). LEMUR-2-DUNLOP can be tracked NOW for your location showing map with azimuth and elevation plus other details from your city location.

Track the satellite on the map from your city or location and see movement details for azimuth, elevation, latitude, longitude, range, height, and movement on the map or in text.







IsCatalogInMostPopularTable: catalog: 43053, numindb: 154
Update: records affected: 1



GetName: 43053 LEMUR-2-DUNLOP

Hit Count: updated at: Fri, 16 Nov 2018 09:54:53 GMT